CZ-6A DEB, 56589

Orbit data source: Space-Track

CZ-6A DEB, 56589 is space debris in SSO originally from a launch on Fri, 11 Nov 2022 UTC launched from the Taiyaun Space Center, China (TSC). Debris objects in space refer to the collection of defunct objects orbiting the Earth. Examples of debris include non-operational satellites, rocket bodies, and fragments generated from explosions, collisions, or faulty payload assembly.

Loading next visibility...
Identifier
56589, 2022-151ADM
Orbit
SSO
Country
Flag of CNCN / PRC
Related business
Manufacturer
SAST
Mission
Spacecraft
Bus & Motor
Unknown
Mass
Unknown
Launch date (UTC)
2022-11-11 (4 years ago)
Launch vehicle
Unknown
Launch site
Taiyaun Space Center, China (TSC)
Object type
Payload
Rocket body
Debris
Shape & HBR
Unknown shape, 0.1 m
Radar Cross Section
Medium (>0.1 m² and <1 m²)

Expand to show TLE details & history
Last TLE update: 12 hours ago

TLE from 12 hours ago
0 CZ-6A DEB
1 56589U 22151ADM 26236.62182951  .00001552  00000-0  99189-3 0  9999
2 56589  98.9062 198.8622 0198431 219.3613 139.2986 13.95731366174156
Epoch: 2026-08-24T14:55Z
TLE epoch observation values (Epoch: 2026-08-24T14:55:26.069Z)
Latitude
-0.00011°
Longitude
2.1027°
Altitude
1,022.321 km
Speed
7.285 km/s
True Right ascension
13h 15m 26s
True Declination
0° 00' 00"
Sunlit
Object was in daylight at epoch
Visualization orbit readout
Latitude
Unknown
Longitude
Unknown
Altitude
Unknown
Speed
Unknown
Apparent Right ascension
Unknown
Apparent Declination
Unknown
Sunlit
N/A
Visualization observer readout
Local Sidereal Time
17:53:36
Azimuth
Unknown
Elevation
Unknown
Doppler factor
Unknown
Orbital elements
Apogee altitude
1,050.349 km
Perigee altitude
761.277 km
Semi-major axis
7,283.95 km
Eccentricity
0.01984
Inclination
98.9062°
RAAN
198.8622°
Arg. of periapsis
219.3613°
True anomaly
140.75387°
Mean anomaly
139.2986°
Eccentric anomaly
140.02896°
Mean motion
3.49134 °/min
Orbital period
103.11 mins
BSTAR
0.00099189
Loading maneuver chart data...
Computing Atmospheric mass density...
Loading historical data...
Loading historical data...
Loading historical data...
Loading historical data...
Loading historical data...
Loading historical data...
Loading historical data...

Documentation

Showing up to 5 results
|